Powrót do katalogu

THOR ABLESTAR DEB

AktywnyLEO
NORAD 1943·DEBRIS·🇺🇸 United States

Wystrzelony Jun 29, 1961 z Cape Canaveral Space Force Station

Loading…

Następne Przeloty (najbliższe 24 godziny)

TLE

ŚwieżeSource: Space-Track

Epoka: Sep 14, 2026, 02:25 UTC

1 01943U 61015HT  26257.10134994  .00000596  00000-0  26926-3 0  9991
2 01943  66.8558 303.2692 0059113 229.0371 130.5605 14.27905789356854

Śledź THOR ABLESTAR DEB w czasie rzeczywistym z AllMySat

Download on the App Store